Regional Weather Roundup
Issued by NWS

Home | Current Version | Previous Version | Graphics & Text | Print | Product List | Glossary On
Versions: 1 2 3 4 5 6 7 8 9 10 11 12 13 14 15 16 17 18 19 20 21 22 23 24 25 26 27
000
ASUS45 KCYS 172010
RWRWY

WYOMING REGIONAL WEATHER ROUNDUP
NATIONAL WEATHER SERVICE CHEYENNE WY
100 PM MST SUN DEC 17 2017

NOTE:  "FAIR" INDICATES FEW OR NO CLOUDS BELOW 12,000 FEET
WITH NO SIGNIFICANT WEATHER AND/OR OBSTRUCTIONS TO VISIBILITY.

WYZ001-172100-
YELLOWSTONE NATIONAL PARK

CITY           SKY/WX    TMP DP  RH WIND       PRES   REMARKS
LK YELLOWSTONE   N/A     14  10  84 VRB5      30.04F WCI   6
W YELLOWSTONE  NOT AVBL

$$
WYZ002>013-054>058-071-098>099-172100-
NORTHERN WYOMING

CITY           SKY/WX    TMP DP  RH WIND       PRES   REMARKS
JACKSON        CLOUDY    25  16  68 S12       30.08S WCI  14
CODY           FAIR      32  16  51 VRB5      29.85F WCI  27
GREYBULL       FAIR      27  25  92 SW5       29.92S WCI  22
WORLAND        FAIR      21  18  88 CALM      29.90F
SHERIDAN       FOG       21  19  92 N3        29.83F VSB 1/4
BUFFALO        FAIR      27  19  72 CALM      29.79F
GILLETTE       FAIR      31  22  69 SW6       29.80F WCI  25
HULETT         FAIR      32  25  74 SW15G21   29.82F WCI  22
NEWCASTLE      FAIR      32  25  74 SE6       29.86F WCI  26

$$
WYZ014>020-022>026-101>103-172100-
CENTRAL WYOMING

CITY           SKY/WX    TMP DP  RH WIND       PRES   REMARKS
BIG PINEY      PTSUNNY   31  11  43 N14       29.99F WCI  21
PINEDALE       FAIR      25  12  58 NW20G25   29.99F WCI  11
DUBOIS         FAIR      27  12  54 W35G44    29.90F HAZE    WCI   9
LANDER         FAIR      31  23  72 E8        29.85F WCI  23
RIVERTON       FAIR      27  19  72 SW8       29.87F WCI  19
CASPER         FAIR      30  18  60 SW18      29.85F WCI  18
DOUGLAS        FAIR      41  17  38 W25G35    29.82F

$$
WYZ021-027>030-104>119-172100-
SOUTHERN WYOMING

CITY           SKY/WX    TMP DP  RH WIND       PRES   REMARKS
EVANSTON       FAIR      27  16  63 SW13      30.09S WCI  16
FORT BRIDGER   FAIR      31  17  56 W21       30.08F WCI  18
ROCK SPRINGS   FAIR      28  15  58 W17       30.01F WCI  16
DIXON          CLOUDY    31  20  63 SW8       30.05F WCI  24
RAWLINS        FAIR      31  17  56 W24G35    29.95F WCI  17
SARATOGA       FAIR      30  19  64 W15G23    29.99S WCI  19
LARAMIE        FAIR      32  18  56 W24G33    29.87F WCI  19
CHEYENNE       FAIR      37  26  64 W12G30    29.86F WCI  29
TORRINGTON     FAIR      46  25  43 W15G23    29.86F
PINE BLUFFS    FAIR      37  28  70 MISG      29.91F

$$




USA.gov is the U.S. government's official web portal to all federal, state and local government web resources and services.